Regional Weather Roundup
Issued by NWS

Home | Current Version | Previous Version | Text Only | Print | Product List | Glossary Off
Versions: 1 2 3 4 5 6 7 8 9 10 11 12 13 14 15 16 17 18 19 20 21 22 23 24 25 26 27 28 29 30 31 32 33 34 35 36 37 38 39 40 41 42 43 44 45 46 47 48 49 50

000
ASUS44 KMEG 161700
RWRTN
TENNESSEE HOURLY STATE WEATHER ROUNDUP
NATIONAL WEATHER SERVICE MEMPHIS TN
1200 PM CDT MON OCT 16 2017

TNZ002-004-019-021-049-052-054-088>092-161800-
WEST TENNESSEE

CITY           SKY/WX    TMP DP  RH WIND       PRES   REMARKS
MEMPHIS INTL   SUNNY     63  40  42 NE10G20   30.36F
NWS MEMPHIS      N/A     60 N/A N/A MISG        N/A
JACKSON        MOSUNNY   61  43  51 NE8G20    30.37S
DYERSBURG      SUNNY     62  41  46 NE7       30.39F
HUNTINGDON     MOSUNNY   59  43  55 VRB7G16   30.36S
LEXINGTON      SUNNY     59  43  55 N9G16     30.34F
SELMER         SUNNY     61  43  51 NE12G20   30.33S
$$

TNZ008-025-027-028-033-062-065-066-161800-
NORTH MIDDLE TENNESSEE

CITY           SKY/WX    TMP DP  RH WIND       PRES   REMARKS
NASHVILLE      PTSUNNY   63  43  48 NE13      30.33F
CLARKSVILLE    MOSUNNY   60  41  49 NE10      30.36S
SMYRNA         MOSUNNY   62  43  49 NE13      30.33F
COOKEVILLE     PTSUNNY   59  45  58 N8G18     30.30S
CROSSVILLE     MOSUNNY   55  41  59 N12G21    30.29S
$$

TNZ061-075-076-078-094-096-097-161800-
SOUTH MIDDLE TENNESSEE

CITY           SKY/WX    TMP DP  RH WIND       PRES   REMARKS
FAYETTEVILLE   SUNNY     59  45  58 N14G21    30.27F
TULLAHOMA      SUNNY     59  41  51 NE9       30.29F
WINCHESTER     SUNNY     59  43  55 N13         N/A
$$

TNZ017-018-042-046-047-161800-
NORTHEAST TENNESSEE

CITY           SKY/WX    TMP DP  RH WIND       PRES   REMARKS
TRI CITIES     CLOUDY    55  43  63 N8        30.26S
$$

TNZ012-013-036-069-073-074-161800-
CENTRAL EAST TENNESSEE

CITY           SKY/WX    TMP DP  RH WIND       PRES   REMARKS
KNOXVILLE      PTSUNNY   60  47  61 N13       30.26S
OAK RIDGE      MOSUNNY   60  45  57 NE9       30.29F
JACKSBORO      PTSUNNY   57  43  58 NE10      30.32S
$$

TNZ083-085-099-161800-
SOUTHEAST TENNESSEE

CITY           SKY/WX    TMP DP  RH WIND       PRES   REMARKS
CHATTANOOGA    MOSUNNY   62  42  47 N18       30.25F
$$

SKY/WX REPORTED AS FAIR MEANS FEW OR NO CLOUDS BELOW
12 THOUSAND FEET.




USA.gov is the U.S. government's official web portal to all federal, state and local government web resources and services.